This is the latest recevied weather packets stored in our database for station/object KC5DAQ-29. If no packets are shown the sender has not sent any weather packets the latest 1 day(s).
| Time | Temp. | Humidity | Pressure | Rain* | Wind** | Luminosity | Snow |
|---|---|---|---|---|---|---|---|
| 1778014384 | 28.89° C | 100% | 1005.1 hPa | 0 mm | 1.79 m/s, 159° | 160 W/m² | - |
| 1778014318 | 28.89° C | 100% | 1005.1 hPa | 0 mm | 1.34 m/s, 227° | 160 W/m² | - |
| 1778014256 | 28.89° C | 100% | 1005.2 hPa | 0 mm | 1.34 m/s, 197° | 160 W/m² | - |
| 1778014196 | 28.89° C | 100% | 1005.2 hPa | 0 mm | 1.79 m/s, 135° | 160 W/m² | - |
| 1778014137 | 28.89° C | 100% | 1005.2 hPa | 0 mm | 1.79 m/s, 200° | 160 W/m² | - |
| 1778014078 | 28.89° C | 100% | 1005.2 hPa | 0 mm | 0.89 m/s, 158° | 223 W/m² | - |
| 1778014018 | 28.89° C | 100% | 1005.2 hPa | 0 mm | 1.34 m/s, 192° | 223 W/m² | - |
| 1778013959 | 28.89° C | 100% | 1005.2 hPa | 0 mm | 1.79 m/s, 188° | 223 W/m² | - |
| 1778013895 | 28.89° C | 100% | 1005.1 hPa | 0 mm | 1.34 m/s, 152° | 223 W/m² | - |
| 1778013831 | 28.89° C | 100% | 1005.1 hPa | 0 mm | 1.79 m/s, 166° | 223 W/m² | - |
| 1778013752 | 28.89° C | 100% | 1005.2 hPa | 0 mm | 1.34 m/s, 219° | 392 W/m² | - |
| 1778013692 | 28.89° C | 100% | 1005.2 hPa | 0 mm | 2.24 m/s, 197° | 392 W/m² | - |
| 1778013632 | 28.89° C | 100% | 1005.2 hPa | 0 mm | 2.24 m/s, 207° | 392 W/m² | - |
| 1778013568 | 28.89° C | 100% | 1005.1 hPa | 0 mm | 2.24 m/s, 240° | 392 W/m² | - |
| 1778013506 | 28.89° C | 100% | 1005.2 hPa | 0 mm | 2.24 m/s, 203° | 357 W/m² | - |
| 1778013442 | 28.89° C | 100% | 1005.2 hPa | 0 mm | 3.13 m/s, 219° | 357 W/m² | - |
| 1778013381 | 28.89° C | 100% | 1005.2 hPa | 0 mm | 2.68 m/s, 221° | 357 W/m² | - |
| 1778013310 | 28.89° C | 100% | 1005.3 hPa | 0 mm | 2.24 m/s, 213° | 357 W/m² | - |
| 1778013248 | 28.89° C | 100% | 1005.3 hPa | 0 mm | 2.24 m/s, 159° | 357 W/m² | - |
| 1778013184 | 28.89° C | 100% | 1005.3 hPa | 0 mm | 1.79 m/s, 134° | 357 W/m² | - |
| 1778013124 | 28.89° C | 100% | 1005.3 hPa | 0 mm | 1.34 m/s, 162° | 686 W/m² | - |
| 1778013063 | 28.89° C | 100% | 1005.3 hPa | 0 mm | 0.89 m/s, 190° | 686 W/m² | - |
| 1778013002 | 28.89° C | 100% | 1005.4 hPa | 0 mm | 1.34 m/s, 224° | 686 W/m² | - |
| 1778012942 | 28.89° C | 100% | 1005.4 hPa | 0 mm | 1.34 m/s, 158° | 686 W/m² | - |
| 1778012883 | 28.89° C | 100% | 1005.4 hPa | 0 mm | 1.79 m/s, 164° | 686 W/m² | - |
* Rain latest hour (hover to see other rain measurements)
** Current wind speed in m/s (hover to see current wind gust speed)